Time,TemperatureF,DewpointF,PressureIn,WindDirection,WindDirectionDegrees,WindSpeedMPH,WindSpeedGustMPH,Humidity,HourlyPrecipIn,Conditions,Clouds,dailyrainin,SoftwareType,DateUTC
2013-01-23 00:04:00,-999.0,-99.9,30.17,East,86,4.0,5.0,-999,-99.99,,,-99.99,,2013-01-23 05:04:00,
2013-01-23 00:12:00,-999.0,-99.9,30.17,ENE,57,4.0,4.0,-999,-99.99,,,-99.99,,2013-01-23 05:12:00,
2013-01-23 00:23:00,-9.0,-99.9,30.17,East,91,3.0,5.0,-999,-99.99,,,-99.99,,2013-01-23 05:23:00,
2013-01-23 00:33:00,-999.0,-99.9,30.17,East,84,3.0,4.0,-999,-99.99,,,-99.99,,2013-01-23 05:33:00,
2013-01-23 00:43:00,-999.0,-99.9,30.17,ENE,73,3.0,5.0,-999,-99.99,,,-99.99,,2013-01-23 05:43:00,
2013-01-23 00:53:00,-999.0,-99.9,30.17,East,86,3.0,5.0,-999,-99.99,,,-99.99,,2013-01-23 05:53:00,
2013-01-23 01:03:00,-999.0,-99.9,30.17,ENE,74,4.0,5.0,-999,-99.99,,,-99.99,,2013-01-23 06:03:00,
2013-01-23 01:13:00,-999.0,-99.9,30.16,East,84,4.0,5.0,-999,-99.99,,,-99.99,,2013-01-23 06:13:00,
2013-01-23 01:23:00,-9.0,-99.9,30.16,ENE,63,3.0,5.0,-999,-99.99,,,-99.99,,2013-01-23 06:23:00,
2013-01-23 01:33:00,-9.0,-99.9,30.16,ENE,63,3.0,5.0,-999,-99.99,,,-99.99,,2013-01-23 06:33:00,
2013-01-23 01:43:00,-999.0,-99.9,30.16,NE,51,3.0,4.0,-999,-99.99,,,-99.99,,2013-01-23 06:43:00,
2013-01-23 01:53:00,-10.0,-99.9,30.16,NE,45,3.0,4.0,-999,-99.99,,,-99.99,,2013-01-23 06:53:00,
2013-01-23 02:02:00,-999.0,-99.9,30.16,NE,51,3.0,4.0,-999,-99.99,,,-99.99,,2013-01-23 07:02:00,
2013-01-23 02:13:00,-999.0,-99.9,30.16,ENE,69,3.0,4.0,-999,-99.99,,,-99.99,,2013-01-23 07:13:00,
2013-01-23 02:23:00,-999.0,-99.9,30.16,ENE,78,2.0,5.0,-999,-99.99,,,-99.99,,2013-01-23 07:23:00,
2013-01-23 02:33:00,-999.0,-99.9,30.16,East,84,2.0,5.0,-999,-99.99,,,-99.99,,2013-01-23 07:33:00,
2013-01-23 02:43:00,-999.0,-99.9,30.16,ENE,66,3.0,4.0,-999,-99.99,,,-99.99,,2013-01-23 07:43:00,
2013-01-23 02:53:00,-11.0,-99.9,30.16,ENE,62,3.0,4.0,-999,-99.99,,,-99.99,,2013-01-23 07:53:00,
2013-01-23 03:02:00,-999.0,-99.9,30.16,East,86,2.0,3.0,-999,-99.99,,,-99.99,,2013-01-23 08:02:00,
2013-01-23 03:13:00,-999.0,-99.9,30.16,ENE,60,3.0,4.0,-999,-99.99,,,-99.99,,2013-01-23 08:13:00,
2013-01-23 03:23:00,-10.0,-99.9,30.16,ENE,63,3.0,4.0,-999,-99.99,,,-99.99,,2013-01-23 08:23:00,
2013-01-23 03:33:00,-999.0,-99.9,30.16,ENE,60,3.0,4.0,-999,-99.99,,,-99.99,,2013-01-23 08:33:00,
2013-01-23 03:43:00,-999.0,-99.9,30.16,ENE,63,3.0,4.0,-999,-99.99,,,-99.99,,2013-01-23 08:43:00,
2013-01-23 03:53:00,-10.0,-99.9,30.16,ENE,69,2.0,4.0,-999,-99.99,,,-99.99,,2013-01-23 08:53:00,
2013-01-23 04:03:00,-999.0,-99.9,30.16,ENE,65,4.0,5.0,-999,-99.99,,,-99.99,,2013-01-23 09:03:00,
2013-01-23 04:12:00,-999.0,-99.9,30.15,ENE,60,4.0,6.0,-999,-99.99,,,-99.99,,2013-01-23 09:12:00,
2013-01-23 04:23:00,-9.0,-99.9,30.15,East,80,3.0,4.0,-999,-99.99,,,-99.99,,2013-01-23 09:23:00,
2013-01-23 04:33:00,-999.0,-99.9,30.15,ENE,75,3.0,4.0,-999,-99.99,,,-99.99,,2013-01-23 09:33:00,
2013-01-23 04:44:00,-999.0,-99.9,30.14,East,81,4.0,5.0,-999,-99.99,,,-99.99,,2013-01-23 09:44:00,
2013-01-23 04:53:00,-999.0,-99.9,30.14,East,96,4.0,5.0,-999,-99.99,,,-99.99,,2013-01-23 09:53:00,
2013-01-23 05:03:00,-999.0,-99.9,30.14,ESE,106,3.0,4.0,-999,-99.99,,,-99.99,,2013-01-23 10:03:00,
2013-01-23 05:13:00,-999.0,-99.9,30.14,ENE,73,4.0,5.0,-999,-99.99,,,-99.99,,2013-01-23 10:13:00,
2013-01-23 05:23:00,-8.0,-99.9,30.14,ENE,75,3.0,5.0,-999,-99.99,,,-99.99,,2013-01-23 10:23:00,
2013-01-23 05:33:00,-999.0,-99.9,30.13,ENE,78,4.0,5.0,-999,-99.99,,,-99.99,,2013-01-23 10:33:00,
2013-01-23 05:43:00,-999.0,-99.9,30.13,East,80,4.0,5.0,-999,-99.99,,,-99.99,,2013-01-23 10:43:00,
2013-01-23 05:53:00,-999.0,-99.9,30.13,East,88,4.0,5.0,-999,-99.99,,,-99.99,,2013-01-23 10:53:00,
2013-01-23 06:03:00,-999.0,-99.9,30.12,East,89,5.0,6.0,-999,-99.99,,,-99.99,,2013-01-23 11:03:00,
2013-01-23 06:12:00,-999.0,-99.9,30.12,East,86,4.0,5.0,-999,-99.99,,,-99.99,,2013-01-23 11:12:00,
2013-01-23 06:23:00,-7.0,-99.9,30.12,East,83,3.0,6.0,-999,-99.99,,,-99.99,,2013-01-23 11:23:00,
2013-01-23 06:34:00,-999.0,-99.9,30.12,East,94,3.0,6.0,-999,-99.99,,,-99.99,,2013-01-23 11:34:00,
2013-01-23 06:43:00,-999.0,-99.9,30.11,East,94,4.0,5.0,-999,-99.99,,,-99.99,,2013-01-23 11:43:00,
2013-01-23 06:53:00,-7.0,-99.9,30.12,ESE,118,3.0,4.0,-999,-99.99,,,-99.99,,2013-01-23 11:53:00,
2013-01-23 07:03:00,-999.0,-99.9,30.12,East,97,4.0,6.0,-999,-99.99,,,-99.99,,2013-01-23 12:03:00,
2013-01-23 07:13:00,-999.0,-99.9,30.11,ESE,122,4.0,5.0,-999,-99.99,,,-99.99,,2013-01-23 12:13:00,
2013-01-23 07:23:00,-999.0,-99.9,30.11,East,93,4.0,5.0,-999,-99.99,,,-99.99,,2013-01-23 12:23:00,
2013-01-23 07:33:00,-999.0,-99.9,30.11,East,96,3.0,5.0,-999,-99.99,,,-99.99,,2013-01-23 12:33:00,
2013-01-23 07:43:00,-999.0,-99.9,30.10,East,84,4.0,5.0,-999,-99.99,,,-99.99,,2013-01-23 12:43:00,
2013-01-23 07:53:00,-7.0,-99.9,30.10,East,80,3.0,4.0,-999,-99.99,,,-99.99,,2013-01-23 12:53:00,
2013-01-23 08:04:00,-999.0,-99.9,30.10,ENE,59,5.0,6.0,-999,-99.99,,,-99.99,,2013-01-23 13:04:00,
2013-01-23 08:13:00,-999.0,-99.9,30.10,ENE,64,4.0,6.0,-999,-99.99,,,-99.99,,2013-01-23 13:13:00,
2013-01-23 08:23:00,-6.0,-99.9,30.10,East,80,5.0,6.0,-999,-99.99,,,-99.99,,2013-01-23 13:23:00,
2013-01-23 08:34:00,-999.0,-99.9,30.09,East,91,3.0,5.0,-999,-99.99,,,-99.99,,2013-01-23 13:34:00,
2013-01-23 08:43:00,-999.0,-99.9,30.09,ESE,114,4.0,7.0,-999,-99.99,,,-99.99,,2013-01-23 13:43:00,
2013-01-23 08:53:00,-6.0,-99.9,30.09,ESE,109,4.0,6.0,-999,-99.99,,,-99.99,,2013-01-23 13:53:00,
2013-01-23 09:03:00,-999.0,-99.9,30.09,ESE,120,4.0,5.0,-999,-99.99,,,-99.99,,2013-01-23 14:03:00,
2013-01-23 09:12:00,-999.0,-99.9,30.09,ESE,123,3.0,5.0,-999,-99.99,,,-99.99,,2013-01-23 14:12:00,
2013-01-23 09:24:00,-6.0,-99.9,30.09,ESE,114,4.0,5.0,-999,-99.99,,,-99.99,,2013-01-23 14:24:00,
2013-01-23 09:33:00,-999.0,-99.9,30.09,ESE,115,4.0,6.0,-999,-99.99,,,-99.99,,2013-01-23 14:33:00,
2013-01-23 09:43:00,-999.0,-99.9,30.09,ESE,114,5.0,6.0,-999,-99.99,,,-99.99,,2013-01-23 14:43:00,
2013-01-23 09:53:00,-5.0,-99.9,30.09,ESE,111,4.0,6.0,-999,-99.99,,,-99.99,,2013-01-23 14:53:00,
2013-01-23 10:03:00,-999.0,-99.9,30.09,ESE,104,4.0,6.0,-999,-99.99,,,-99.99,,2013-01-23 15:03:00,
2013-01-23 10:13:00,-5.0,-99.9,30.09,ESE,111,3.0,5.0,-999,-99.99,,,-99.99,,2013-01-23 15:13:00,
2013-01-23 10:23:00,-999.0,-99.9,30.09,East,81,3.0,5.0,-999,-99.99,,,-99.99,,2013-01-23 15:23:00,
2013-01-23 10:33:00,-999.0,-99.9,30.09,East,101,4.0,6.0,-999,-99.99,,,-99.99,,2013-01-23 15:33:00,
2013-01-23 10:43:00,-999.0,-99.9,30.09,East,89,4.0,6.0,-999,-99.99,,,-99.99,,2013-01-23 15:43:00,
2013-01-23 10:53:00,-3.0,-99.9,30.09,East,89,6.0,7.0,-999,-99.99,,,-99.99,,2013-01-23 15:53:00,
2013-01-23 11:03:00,-999.0,-99.9,30.09,East,97,6.0,7.0,-999,-99.99,,,-99.99,,2013-01-23 16:03:00,
2013-01-23 11:12:00,-999.0,-99.9,30.09,ESE,103,5.0,6.0,-999,-99.99,,,-99.99,,2013-01-23 16:12:00,
2013-01-23 11:23:00,-2.0,-99.9,30.09,ENE,75,4.0,5.0,-999,-99.99,,,-99.99,,2013-01-23 16:23:00,
2013-01-23 11:33:00,-999.0,-99.9,30.09,East,80,5.0,7.0,-999,-99.99,,,-99.99,,2013-01-23 16:33:00,
2013-01-23 11:43:00,-999.0,-99.9,30.08,East,84,5.0,7.0,-999,-99.99,,,-99.99,,2013-01-23 16:43:00,
2013-01-23 11:53:00,-1.0,-99.9,30.08,East,97,5.0,8.0,-999,-99.99,,,-99.99,,2013-01-23 16:53:00,
2013-01-23 12:03:00,-999.0,-99.9,30.08,East,89,6.0,7.0,-999,-99.99,,,-99.99,,2013-01-23 17:03:00,
2013-01-23 12:13:00,-999.0,-99.9,30.07,East,94,6.0,8.0,-999,-99.99,,,-99.99,,2013-01-23 17:13:00,
2013-01-23 12:34:00,-999.0,-99.9,30.07,East,81,5.0,6.0,-999,-99.99,,,-99.99,,2013-01-23 17:34:00,
2013-01-23 12:43:00,-999.0,-99.9,30.07,ENE,74,6.0,7.0,-999,-99.99,,,-99.99,,2013-01-23 17:43:00,
2013-01-23 13:04:00,-999.0,-99.9,30.06,East,95,5.0,8.0,-999,-99.99,,,-99.99,,2013-01-23 18:04:00,
2013-01-23 13:13:00,-999.0,-99.9,30.05,East,83,6.0,7.0,-999,-99.99,,,-99.99,,2013-01-23 18:13:00,
2013-01-23 13:24:00,2.0,-99.9,30.05,East,85,5.0,7.0,-999,-99.99,,,-99.99,,2013-01-23 18:24:00,
2013-01-23 13:33:00,2.0,-99.9,30.05,East,85,5.0,7.0,-999,-99.99,,,-99.99,,2013-01-23 18:33:00,
2013-01-23 13:44:00,-999.0,-99.9,30.04,East,86,6.0,7.0,-999,-99.99,,,-99.99,,2013-01-23 18:44:00,
2013-01-23 13:53:00,3.0,-99.9,30.04,East,87,7.0,8.0,-999,-99.99,,,-99.99,,2013-01-23 18:53:00,
2013-01-23 14:03:00,3.0,-99.9,30.04,East,87,7.0,8.0,-999,-99.99,,,-99.99,,2013-01-23 19:03:00,
2013-01-23 14:13:00,-999.0,-99.9,30.03,ESE,108,7.0,9.0,-999,-99.99,,,-99.99,,2013-01-23 19:13:00,
2013-01-23 14:23:00,4.0,-99.9,30.03,East,98,6.0,8.0,-999,-99.99,,,-99.99,,2013-01-23 19:23:00,
2013-01-23 14:33:00,-999.0,-99.9,30.02,East,89,6.0,8.0,-999,-99.99,,,-99.99,,2013-01-23 19:33:00,
2013-01-23 14:43:00,-999.0,-99.9,30.02,East,86,6.0,8.0,-999,-99.99,,,-99.99,,2013-01-23 19:43:00,
2013-01-23 14:53:00,-999.0,-99.9,30.02,East,84,5.0,7.0,-999,-99.99,,,-99.99,,2013-01-23 19:53:00,
2013-01-23 15:03:00,-999.0,-99.9,30.02,East,90,6.0,7.0,-999,-99.99,,,-99.99,,2013-01-23 20:03:00,
2013-01-23 15:13:00,-999.0,-99.9,30.02,East,89,6.0,8.0,-999,-99.99,,,-99.99,,2013-01-23 20:13:00,
2013-01-23 15:23:00,6.0,-99.9,30.02,East,85,6.0,8.0,-999,-99.99,,,-99.99,,2013-01-23 20:23:00,
2013-01-23 15:33:00,-999.0,-99.9,30.02,East,87,7.0,9.0,-999,-99.99,,,-99.99,,2013-01-23 20:33:00,
2013-01-23 15:43:00,-999.0,-99.9,30.03,ENE,71,7.0,8.0,-999,-99.99,,,-99.99,,2013-01-23 20:43:00,
2013-01-23 15:54:00,6.0,-99.9,30.03,East,79,7.0,9.0,-999,-99.99,,,-99.99,,2013-01-23 20:54:00,
2013-01-23 16:03:00,-999.0,-99.9,30.03,East,92,8.0,10.0,-999,-99.99,,,-99.99,,2013-01-23 21:03:00,
2013-01-23 16:12:00,-999.0,-99.9,30.03,East,99,7.0,8.0,-999,-99.99,,,-99.99,,2013-01-23 21:12:00,
2013-01-23 16:23:00,-999.0,-99.9,30.04,East,95,6.0,8.0,-999,-99.99,,,-99.99,,2013-01-23 21:23:00,
2013-01-23 16:34:00,-999.0,-99.9,30.04,East,95,6.0,8.0,-999,-99.99,,,-99.99,,2013-01-23 21:34:00,
2013-01-23 16:43:00,-999.0,-99.9,30.04,East,96,7.0,9.0,-999,-99.99,,,-99.99,,2013-01-23 21:43:00,
2013-01-23 16:53:00,6.0,-99.9,30.04,ESE,105,8.0,10.0,-999,-99.99,,,-99.99,,2013-01-23 21:53:00,
2013-01-23 17:03:00,-999.0,-99.9,30.04,ESE,108,8.0,11.0,-999,-99.99,,,-99.99,,2013-01-23 22:03:00,
2013-01-23 17:13:00,-999.0,-99.9,30.05,East,98,6.0,8.0,-999,-99.99,,,-99.99,,2013-01-23 22:13:00,
2013-01-23 17:23:00,6.0,-99.9,30.05,East,99,6.0,8.0,-999,-99.99,,,-99.99,,2013-01-23 22:23:00,
2013-01-23 17:33:00,-999.0,-99.9,30.06,East,86,5.0,6.0,-999,-99.99,,,-99.99,,2013-01-23 22:33:00,
2013-01-23 17:43:00,-999.0,-99.9,30.07,East,88,5.0,6.0,-999,-99.99,,,-99.99,,2013-01-23 22:43:00,
2013-01-23 17:53:00,6.0,-99.9,30.07,ESE,105,5.0,7.0,-999,-99.99,,,-99.99,,2013-01-23 22:53:00,
2013-01-23 18:03:00,-999.0,-99.9,30.07,East,88,4.0,6.0,-999,-99.99,,,-99.99,,2013-01-23 23:03:00,
2013-01-23 18:13:00,-999.0,-99.9,30.08,ESE,105,4.0,6.0,-999,-99.99,,,-99.99,,2013-01-23 23:13:00,
2013-01-23 18:23:00,6.0,-99.9,30.08,East,96,4.0,5.0,-999,-99.99,,,-99.99,,2013-01-23 23:23:00,
2013-01-23 18:33:00,-999.0,-99.9,30.09,East,85,5.0,6.0,-999,-99.99,,,-99.99,,2013-01-23 23:33:00,
2013-01-23 18:43:00,-999.0,-99.9,30.09,East,90,4.0,6.0,-999,-99.99,,,-99.99,,2013-01-23 23:43:00,
2013-01-23 18:53:00,-999.0,-99.9,30.09,ESE,114,4.0,6.0,-999,-99.99,,,-99.99,,2013-01-23 23:53:00,
2013-01-23 19:03:00,-999.0,-99.9,30.10,East,101,4.0,6.0,-999,-99.99,,,-99.99,,2013-01-24 00:03:00,
2013-01-23 19:12:00,-999.0,-99.9,30.10,ESE,110,4.0,5.0,-999,-99.99,,,-99.99,,2013-01-24 00:12:00,
2013-01-23 19:22:00,6.0,-99.9,30.10,ESE,110,4.0,5.0,-999,-99.99,,,-99.99,,2013-01-24 00:22:00,
2013-01-23 19:33:00,-999.0,-99.9,30.11,ESE,109,3.0,4.0,-999,-99.99,,,-99.99,,2013-01-24 00:33:00,
2013-01-23 19:43:00,-999.0,-99.9,30.12,East,96,3.0,5.0,-999,-99.99,,,-99.99,,2013-01-24 00:43:00,
2013-01-23 19:53:00,6.0,-99.9,30.12,East,96,3.0,5.0,-999,-99.99,,,-99.99,,2013-01-24 00:53:00,
2013-01-23 20:03:00,-999.0,-99.9,30.13,East,92,4.0,5.0,-999,-99.99,,,-99.99,,2013-01-24 01:03:00,
2013-01-23 20:12:00,-999.0,-99.9,30.14,ENE,78,2.0,4.0,-999,-99.99,,,-99.99,,2013-01-24 01:12:00,
2013-01-23 20:23:00,6.0,-99.9,30.14,ENE,71,2.0,4.0,-999,-99.99,,,-99.99,,2013-01-24 01:23:00,
2013-01-23 20:33:00,-999.0,-99.9,30.14,ENE,63,2.0,3.0,-999,-99.99,,,-99.99,,2013-01-24 01:33:00,
2013-01-23 20:43:00,-999.0,-99.9,30.14,East,80,3.0,4.0,-999,-99.99,,,-99.99,,2013-01-24 01:43:00,
2013-01-23 20:53:00,7.0,-99.9,30.15,ENE,69,2.0,4.0,-999,-99.99,,,-99.99,,2013-01-24 01:53:00,
2013-01-23 21:03:00,-999.0,-99.9,30.16,NE,40,5.0,6.0,-999,-99.99,,,-99.99,,2013-01-24 02:03:00,
2013-01-23 21:12:00,-999.0,-99.9,30.16,NE,36,4.0,5.0,-999,-99.99,,,-99.99,,2013-01-24 02:12:00,
2013-01-23 21:23:00,7.0,-99.9,30.17,NNE,27,4.0,5.0,-999,-99.99,,,-99.99,,2013-01-24 02:23:00,
2013-01-23 21:33:00,-999.0,-99.9,30.17,NNE,30,4.0,6.0,-999,-99.99,,,-99.99,,2013-01-24 02:33:00,
2013-01-23 21:43:00,-999.0,-99.9,30.17,NNE,30,4.0,6.0,-999,-99.99,,,-99.99,,2013-01-24 02:43:00,
2013-01-23 21:53:00,-999.0,-99.9,30.17,NNE,30,4.0,6.0,-999,-99.99,,,-99.99,,2013-01-24 02:53:00,
2013-01-23 22:03:00,-999.0,-99.9,30.19,NE,40,11.0,14.0,-999,-99.99,,,-99.99,,2013-01-24 03:03:00,
2013-01-23 22:12:00,-999.0,-99.9,30.19,NE,47,13.0,15.0,-999,-99.99,,,-99.99,,2013-01-24 03:12:00,
2013-01-23 22:22:00,6.0,-99.9,30.20,NE,42,10.0,16.0,-999,-99.99,,,-99.99,,2013-01-24 03:22:00,
2013-01-23 22:33:00,-999.0,-99.9,30.21,NNE,28,8.0,10.0,-999,-99.99,,,-99.99,,2013-01-24 03:33:00,
2013-01-23 22:43:00,-999.0,-99.9,30.22,NNE,24,5.0,9.0,-999,-99.99,,,-99.99,,2013-01-24 03:43:00,
2013-01-23 22:53:00,5.0,-99.9,30.22,NNE,27,5.0,6.0,-999,-99.99,,,-99.99,,2013-01-24 03:53:00,
2013-01-23 23:03:00,-999.0,-99.9,30.23,NNE,33,6.0,8.0,-999,-99.99,,,-99.99,,2013-01-24 04:03:00,
2013-01-23 23:13:00,-999.0,-99.9,30.24,NE,43,8.0,10.0,-999,-99.99,,,-99.99,,2013-01-24 04:13:00,
2013-01-23 23:22:00,-999.0,-99.9,30.24,NE,35,9.0,12.0,-999,-99.99,,,-99.99,,2013-01-24 04:22:00,
2013-01-23 23:33:00,-999.0,-99.9,30.25,NNE,17,7.0,9.0,-999,-99.99,,,-99.99,,2013-01-24 04:33:00,
2013-01-23 23:43:00,-999.0,-99.9,30.26,NNE,26,11.0,14.0,-999,-99.99,,,-99.99,,2013-01-24 04:43:00,
2013-01-23 23:53:00,4.0,-99.9,30.27,NNE,23,12.0,16.0,-999,-99.99,,,-99.99,,2013-01-24 04:53:00,